Simultaneous Nadir Overpasses (SNOs) Predictions

Prediction of SNOs between GOES-17 and METOP-C Satellite Orbit:

Table of predicted SNOs for the next 14.0 days since TLE Epoch: 11/9/2024
Index Date Time (GOES-17) GOES-17 Lat,Lon METOP-C Lat,Lon Distance(km) Time Diff (sec)
1 11/10/2024 04:46:07 0.00,-104.67 -0.82,-108.28 411.29 80
2 11/11/2024 04:22:46 0.00,-104.67 0.29,-103.28 158.55 80
3 11/12/2024 16:41:37 -0.00,-104.73 0.68,-107.84 354.26 80
4 11/13/2024 16:23:36 -0.00,-104.73 -0.44,-102.84 216.07 80
5 11/15/2024 04:42:34 0.00,-104.69 -0.59,-107.43 311.20 80
6 11/16/2024 04:19:13 -0.00,-104.69 0.49,-102.42 258.64 80
7 11/17/2024 16:38:02 0.00,-104.74 0.51,-106.97 254.77 80
8 11/18/2024 16:20:02 0.00,-104.74 -0.64,-101.97 315.44 80
9 11/20/2024 04:38:59 0.00,-104.70 -0.40,-106.55 211.36 80
10 11/21/2024 04:15:38 0.00,-104.70 0.70,-101.55 358.70 80
11 11/22/2024 16:34:27 -0.01,-104.75 0.28,-106.10 154.44 80
